SCP
0 0 0 0 0 -0 -0 -0 -0 -0 -0 -0 -0 -0 -0 -0 -0 -0 -0 -0 -0 -0 -0 -0 -0 -0 -0 -0 -0 -0 -0 -0 -0 -0 -0 -0 -0 -0 -0 -0 -0 0 -0
0 0 0 0 0 0 -0 0 -0 -0 -0 -0 -0 -0 -0 -0 -0 -0 -0 -0 -0 -0 -0 -0 -0 -0 -0 -0 -0 -0 -0 -0 -0 -0 -0 -0 -0 -0 -0 -0 -0 -0 -0
0 0 0 0 -0 -0 -0 0 0 -0 -0 -0 -0 -0 -0 -0 -0 -0 -0 -0 -0 -0 -0 -0 -0 -0 -0 -0 -0 -0 -0 -0 -0 -0 -0 0 -0 -0 -0 -0 -0 -0 -0
-0 0 0 0 -0 -0 -0 -0 -0 -0 -0 -0 -0 -0 -0 -0 -0 -0 -0 -0 -0 -0 -0 -0 -0 -0 -0 -0 -0 -0 -0 -0 -0 -0 0 0 -0 -0 -0 -0 -0 -0 -0
-0 0 0 -0 -0 -0 -0 -0 -0 -0 -0 -0 -0 -0 -0 -0 -0 -0 -0 -0 -0 -0 -0 -0 -0 -0 -0 -0 -0 -0 -0 -0 -0 0 0 0 0 -0 -0 -0 -0 -0 -0
-0 0 -0 -0 -0 -0 -0 -0 -0 -0 -0 -0 -0 -0 -0 -0 -0 -0 -0 -0 -0 -0 -0 -0 -0 -0 -0 -0 -0 -0 -0 -0 -0 0 0 0 0 -0 -0 -0 -0 -0 -0
-0 -0 -0 -0 -0 -0 -0 -0 -0 -0 -0 -0 -0 -0 -0 -0 -0 -0 -0 -0 -0 -0 -0 -0 -0 -0 -0 -0 -0 -0 -0 -0 0 0 0 0 0 -0 -0 -0 -0 -0 -0
-0 -0 0 0 0 -0 -0 -0 -0 -0 -0 -0 -0 -0 -0 -0 -0 -0 -0 -0 -0 -0 -0 -0 -0 -0 -0 -0 -0 -0 -0 -0 0 0 0 0 -0 -0 -0 -0 -0 -0 -0
-0 -0 0 0 0 0 0 -0 -0 -0 -0 -0 -0 -0 -0 -0 -0 -0 -0 -0 -0 -0 -0 -0 -0 -0 -0 -0 -0 -0 -0 -0 0 0 0 0 -0 -0 -0 -0 -0 -0 -0
-0 -0 0 0 0 0 0 -0 -0 -0 -0 -0 -0 -0 -0 -0 -0 -0 -0 -0 -0 -0 -0 -0 -0 -0 -0 -0 -0 -0 -0 -0 0 0 0 0 -0 -0 -0 -0 -0 -0 -0
-0 -0 0 0 0 0 0 0 0 -0 0 -0 0 -0 0 0 0 0 0 -0 -0 -0 -0 -0 -0 -0 -0 -0 -0 -0 -0 0 0 0 0 -0 -0 -0 0 0 0 0 0
-0 -0 0 0 0 0 0 0 0 0 0 0 0 0 0 0 0 0 0 0 -0 -0 -0 -0 -0 -0 0 0 0 0 0 0 0 0 0 0 0 0 0 0 0 0 0
-0 0 0 0 0 -0 0 0 0 0 0 0 0 0 0 0 0 0 0 0 0 0 0 0 0 0 0 0 0 0 0 0 0 0 0 0 0 0 0 0 0 0 0
-0 -0 0 0 0 -0 0 0 0 0 0 0 0 0 0 0 0 0 0 0 0 0 0 0 0 0 0 0 0 0 0 0 0 0 0 0 0 0 0 0 0 0 0
-0 -0 0 0 -0 -0 -0 0 0 0 0 0 0 0 0 0 0 0 0 0 0 0 0 0 0 0 0 0 0 0 0 0 0 0 0 0 0 0 0 0 0 0 0
-0 -0 0 -0 0 0 0 0 0 0 0 0 0 0 0 0 0 0 0 0 0 0 0 0 0 0 0 0 0 0 0 0 0 0 0 0 0 0 0 0 0 0 0
-0 -0 0 -0 0 0 0 0 0 0 0 0 0 0 0 0 0 0 0 0 0 0 0 0 0 0 0 0 0 0 0 0 0 0 0 0 0 0 0 0 0 0 0
0 -0 0 0 0 0 0 0 0 0 0 0 0 0 0 0 0 0 0 0 0 0 0 0 0 0 0 0 0 0 0 0 0 0 0 0 0 0 0 0 0 0 0
0 0 0 0 0 0 0 0 0 0 0 0 0 0 0 0 0 0 0 0 0 0 0 0 0 0 0 0 0 0 0 0 0 0 0 0 0 0 0 0 0 0 0
0 0 0 0 0 0 0 0 0 0 0 0 0 0 0 0 0 0 0 0 0 0 0 0 0 0 0 0 0 0 0 0 0 0 0 0 0 0 0 0 0 0 0
0 0 0 0 0 0 0 0 0 0 0 0 0 0 0 0 0 0 0 0 0 0 0 0 0 0 0 0 0 0 0 0 0 0 0 0 0 0 0 0 0 0 0
0 0 0 0 0 0 0 0 0 0 0 0 0 0 0 0 0 0 0 0 0 0 0 0 0 0 0 0 0 0 0 0 0 0 0 0 0 0 0 0 0 0 0
0 0 0 0 0 0 0 0 0 0 0 0 0 0 0 0 0 0 0 0 0 0 0 0 0 0 0 0 0 0 0 0 0 0 0 0 0 0 0 0 0 0 0
0 0 0 0 0 0 0 0 0 0 0 0 0 0 0 0 0 0 0 0 0 0 0 0 0 0 0 0 0 0 0 0 0 0 0 0 0 0 0 0 0 0 0
0 0 0 0 0 0 0 0 0 0 0 0 0 0 0 0 0 0 0 0 0 0 0 0 0 0 0 0 0 0 0 0 0 0 0 0 0 0 0 0 0 0 0
0 0 0 0 0 0 0 0 0 0 0 0 0 0 0 0 0 0 0 0 0 0 0 0 0 0 0 0 0 0 0 0 0 0 0 0 0 0 0 0 0 0 0
Wind_Speed_500mb
37 35 22 23 22 22 23 23 25 26 27 27 28 29 32 30 25 24 23 23 33 37 38 41 38 36 33 31 32 31 31 32 34 41 48 49 46 45 45 44 44 46 43
40 39 28 27 24 22 23 24 26 27 28 29 30 30 31 31 22 23 24 25 34 36 38 42 41 36 36 31 28 30 29 27 25 27 35 41 44 44 47 49 47 50 49
39 40 31 28 25 24 23 22 24 27 28 28 30 30 32 31 21 21 23 29 35 37 39 39 35 38 35 31 31 33 32 30 26 22 22 35 36 34 37 38 40 38 40
39 41 35 31 26 26 25 23 24 24 26 27 28 29 35 29 20 22 26 29 34 37 38 37 33 34 31 29 30 31 32 31 32 31 28 33 38 33 28 28 27 32 31
38 40 37 33 27 28 27 24 24 24 24 24 24 27 27 27 20 23 24 27 33 36 36 35 35 34 31 31 30 32 36 39 39 40 45 43 48 46 40 35 36 48 45
39 40 38 34 28 27 26 24 24 23 22 22 22 23 23 20 18 20 22 25 30 33 35 33 33 36 33 32 36 36 40 44 49 51 50 49 44 37 44 47 48 47 43
41 39 38 35 29 26 25 24 23 21 21 21 20 20 20 18 17 19 21 24 28 31 31 27 26 27 28 29 36 41 40 48 50 45 44 37 34 28 30 33 42 39 39
33 41 36 34 30 27 24 22 21 20 20 18 18 17 17 16 17 18 20 23 26 29 29 25 24 21 22 25 33 36 33 34 36 34 35 33 25 24 23 33 37 40 42
30 32 36 36 34 29 26 23 21 19 19 18 17 15 15 16 17 19 22 24 25 25 23 22 19 16 17 22 24 28 28 27 30 27 21 19 17 22 36 36 37 38 36
34 30 31 38 38 35 31 26 24 21 20 19 17 15 17 20 22 23 23 24 24 23 22 21 17 14 14 14 13 11 14 17 26 26 20 25 29 29 32 38 41 42 40
38 40 39 38 42 39 35 32 28 25 23 22 18 15 16 18 22 23 23 23 21 20 20 20 17 13 10 11 11 13 14 19 24 29 33 25 22 25 30 33 38 40 41
54 49 44 39 45 44 42 38 36 33 30 22 17 16 17 16 18 20 21 18 18 18 19 18 16 12 8 7 9 11 11 19 28 39 30 19 12 20 29 32 36 37 41
58 54 48 43 39 47 47 44 42 39 36 30 22 17 20 16 14 14 14 15 14 13 11 12 11 8 6 5 7 10 16 22 34 40 24 13 8 17 27 33 36 38 40
65 60 50 47 46 45 47 47 45 45 44 38 33 29 28 21 16 14 12 12 13 13 8 5 5 6 5 6 9 13 21 20 27 34 27 15 17 20 29 28 34 34 37
66 64 58 51 54 48 46 50 49 48 49 46 41 37 35 24 19 17 16 15 17 15 12 10 7 4 7 10 13 18 17 21 24 24 24 27 21 24 24 26 30 32 36
62 61 65 56 59 56 51 56 54 50 50 52 48 41 37 34 32 23 31 28 26 24 20 14 9 9 10 13 18 22 20 23 26 26 20 22 22 32 24 23 27 28 31
62 60 63 60 64 60 59 52 57 56 48 56 54 51 44 39 43 39 40 40 35 34 28 22 18 16 16 18 25 28 27 26 30 31 28 27 20 23 29 22 24 25 29
60 65 63 65 65 66 68 63 59 54 53 56 57 58 53 49 45 43 44 40 38 36 33 30 25 24 22 22 28 34 35 32 34 36 35 31 28 14 15 31 25 22 26
62 64 71 71 70 68 68 69 64 61 56 57 60 61 60 57 51 52 49 46 47 43 44 39 38 36 31 31 33 34 34 35 39 41 38 35 30 20 18 20 31 33 27
57 64 70 77 73 75 71 73 69 64 61 61 63 63 59 55 56 56 55 57 51 53 50 50 49 44 39 33 36 36 36 38 40 40 38 36 33 28 24 24 28 34 36
63 67 72 78 84 84 85 81 79 76 70 68 67 62 61 61 57 52 55 59 58 66 54 60 57 52 48 44 46 39 37 38 41 42 43 40 36 30 28 29 27 26 32
65 68 76 77 83 88 90 89 86 81 71 73 70 69 65 65 62 59 61 63 56 69 57 63 64 61 57 57 52 43 30 33 42 43 42 40 37 35 35 34 34 31 30
63 74 72 77 81 85 93 95 92 83 75 72 78 75 74 71 71 63 67 65 65 70 58 66 75 71 67 69 61 40 22 26 47 48 48 43 40 42 43 42 41 38 34
56 68 75 72 77 83 86 92 93 89 85 81 82 80 79 74 80 68 64 67 69 70 71 80 73 74 75 80 75 67 48 31 31 31 53 54 52 50 47 47 46 44 40
43 61 73 65 71 77 79 84 85 84 82 73 76 80 76 78 80 76 72 72 76 74 66 76 83 84 73 85 85 70 74 55 41 32 44 63 64 57 52 49 48 48 45
41 52 63 62 64 67 73 79 79 77 73 71 74 75 75 80 83 82 83 80 77 80 75 79 77 74 84 90 93 80 83 77 71 60 42 50 63 62 58 54 55 53 48
Wind_Direction_500mb
177 183 166 161 148 131 123 107 99 97 96 97 99 98 98 92 92 81 65 68 81 86 88 93 98 99 100 98 97 100 102 98 100 100 95 89 87 87 86 85 85 84 84
163 171 169 159 146 129 118 107 103 97 93 93 96 99 105 104 88 78 67 82 87 89 93 93 95 100 94 90 92 89 95 106 112 107 101 98 94 92 92 91 90 89 87
170 166 167 162 151 135 125 111 102 98 96 94 96 99 102 103 88 83 82 87 90 93 97 98 100 97 91 85 82 75 86 94 101 108 115 98 94 99 96 97 99 98 93
172 168 167 163 152 137 130 121 112 102 98 96 97 98 107 107 105 88 89 94 95 100 103 105 105 100 94 84 74 72 79 91 98 100 99 104 95 91 92 90 90 83 84
175 171 169 164 154 143 137 130 121 111 105 99 94 98 111 113 107 91 92 96 101 106 108 108 105 101 94 85 82 90 89 90 89 89 84 80 84 81 86 85 90 89 87
177 174 172 168 161 149 144 138 130 123 118 112 105 102 105 110 99 96 98 97 102 109 114 118 117 105 98 95 96 98 95 94 92 95 94 95 90 91 91 97 96 97 100
174 177 176 173 168 159 153 146 141 134 126 120 115 111 109 110 104 105 106 108 109 113 119 126 117 117 110 98 102 102 101 104 104 101 99 98 95 93 94 99 98 95 92
177 178 181 178 176 171 163 156 150 142 135 129 123 116 111 110 110 112 113 114 115 120 129 127 125 123 118 112 110 113 110 110 102 102 102 98 101 94 93 90 96 100 102
179 180 185 185 184 181 176 171 164 155 148 143 137 128 122 119 118 117 116 116 117 124 126 127 127 122 118 113 116 124 131 128 116 103 94 92 90 94 104 109 107 109 105
185 192 201 195 192 188 185 182 177 170 163 156 147 136 131 129 127 125 124 122 121 122 121 124 125 121 114 112 118 135 155 147 120 109 103 98 105 105 97 97 96 95 94
193 199 202 208 201 196 193 188 183 179 173 163 148 132 130 135 134 132 131 127 122 119 114 113 113 114 118 127 127 124 128 137 124 112 109 113 110 97 102 97 96 96 94
195 198 203 213 210 202 199 195 190 187 180 182 167 148 139 141 140 139 141 135 130 125 112 107 109 110 115 125 141 149 151 149 132 115 115 113 105 104 99 97 95 96 90
200 201 202 207 213 215 205 200 197 195 188 189 191 193 172 156 151 153 154 153 153 136 116 98 100 106 116 135 171 173 144 149 135 124 117 114 121 105 97 94 92 91 91
205 208 211 206 211 216 218 212 208 201 196 198 195 203 207 192 191 194 183 182 177 168 162 141 129 132 113 125 157 171 161 157 159 150 145 125 109 104 99 97 95 94 88
211 214 217 211 211 216 213 216 216 216 206 204 201 205 214 203 201 204 209 232 218 203 208 212 222 191 144 150 167 180 180 166 166 180 168 147 140 110 102 98 96 96 97
218 220 219 219 215 216 217 216 216 219 216 211 211 209 212 212 206 216 208 213 223 220 221 228 219 216 196 179 188 195 203 184 179 186 196 186 176 126 115 108 107 102 100
223 222 223 223 219 219 219 224 223 226 225 218 217 216 216 218 214 218 214 213 217 217 226 221 217 218 221 199 201 201 212 203 194 202 210 222 225 154 128 125 120 114 106
229 225 223 225 223 222 223 228 229 228 228 224 222 221 220 225 226 224 225 229 230 228 222 228 219 219 217 217 207 201 207 211 201 209 216 227 219 232 217 148 129 121 110
235 230 226 226 229 225 225 227 235 234 232 231 226 223 224 223 228 229 232 235 236 237 230 225 218 214 216 215 205 202 206 214 211 214 223 223 220 220 202 193 154 138 132
239 234 230 229 230 229 231 229 229 233 235 234 232 228 228 227 228 229 234 237 237 236 239 233 219 216 217 219 204 201 207 211 213 218 221 223 227 226 213 198 178 156 139
238 234 230 229 229 227 227 227 228 228 232 231 236 235 231 230 228 231 238 238 236 245 242 234 221 218 213 216 208 199 198 210 213 215 217 220 220 218 213 200 194 188 171
238 235 230 230 231 230 231 232 232 230 232 235 234 239 229 232 231 240 237 243 240 243 240 236 234 216 221 218 213 200 194 209 212 216 219 220 218 217 216 209 206 205 198
241 233 233 231 231 232 233 231 232 232 230 236 235 233 236 235 233 237 242 241 244 244 252 240 234 239 232 226 215 210 195 212 211 217 218 221 225 221 217 215 212 209 202
241 235 233 234 233 234 236 234 235 239 238 235 239 242 239 241 240 238 244 245 241 245 251 241 243 237 252 238 216 220 225 230 195 209 217 221 224 223 220 217 213 209 206
236 233 229 232 234 236 238 240 241 242 245 244 243 246 243 247 239 244 244 245 250 238 250 245 245 242 253 237 231 230 226 231 224 219 213 218 220 219 219 218 214 210 208
231 222 222 228 233 239 241 240 238 241 243 246 250 248 246 246 244 246 244 248 240 248 254 249 244 255 240 243 235 238 235 232 232 225 220 221 224 222 216 216 215 213 211
Wind_Speed_850mb
37 35 22 23 22 22 23 23 25 26 27 27 28 29 32 30 25 24 23 23 33 37 38 41 38 36 33 31 32 31 31 32 34 41 48 49 46 45 45 44 44 46 43
40 39 28 27 24 22 23 24 26 27 28 29 30 30 31 31 22 23 24 25 34 36 38 42 41 36 36 31 28 30 29 27 25 27 35 41 44 44 47 49 47 50 49
39 40 31 28 25 24 23 22 24 27 28 28 30 30 32 31 21 21 23 29 35 37 39 39 35 38 35 31 31 33 32 30 26 22 22 35 36 34 37 38 40 38 40
39 41 35 31 26 26 25 23 24 24 26 27 28 29 35 29 20 22 26 29 34 37 38 37 33 34 31 29 30 31 32 31 32 31 28 33 38 33 28 28 27 32 31
38 40 37 33 27 28 27 24 24 24 24 24 24 27 27 27 20 23 24 27 33 36 36 35 35 34 31 31 30 32 36 39 39 40 45 43 48 46 40 35 36 48 45
39 40 38 34 28 27 26 24 24 23 22 22 22 23 23 20 18 20 22 25 30 33 35 33 33 36 33 32 36 36 40 44 49 51 50 49 44 37 44 47 48 47 43
41 39 38 35 29 26 25 24 23 21 21 21 20 20 20 18 17 19 21 24 28 31 31 27 26 27 28 29 36 41 40 48 50 45 44 37 34 28 30 33 42 39 39
33 41 36 34 30 27 24 22 21 20 20 18 18 17 17 16 17 18 20 23 26 29 29 25 24 21 22 25 33 36 33 34 36 34 35 33 25 24 23 33 37 40 42
30 32 36 36 34 29 26 23 21 19 19 18 17 15 15 16 17 19 22 24 25 25 23 22 19 16 17 22 24 28 28 27 30 27 21 19 17 22 36 36 37 38 36
34 30 31 38 38 35 31 26 24 21 20 19 17 15 17 20 22 23 23 24 24 23 22 21 17 14 14 14 13 11 14 17 26 26 20 25 29 29 32 38 41 42 40
38 40 39 38 42 39 35 32 28 25 23 22 18 15 16 18 22 23 23 23 21 20 20 20 17 13 10 11 11 13 14 19 24 29 33 25 22 25 30 33 38 40 41
54 49 44 39 45 44 42 38 36 33 30 22 17 16 17 16 18 20 21 18 18 18 19 18 16 12 8 7 9 11 11 19 28 39 30 19 12 20 29 32 36 37 41
58 54 48 43 39 47 47 44 42 39 36 30 22 17 20 16 14 14 14 15 14 13 11 12 11 8 6 5 7 10 16 22 34 40 24 13 8 17 27 33 36 38 40
65 60 50 47 46 45 47 47 45 45 44 38 33 29 28 21 16 14 12 12 13 13 8 5 5 6 5 6 9 13 21 20 27 34 27 15 17 20 29 28 34 34 37
66 64 58 51 54 48 46 50 49 48 49 46 41 37 35 24 19 17 16 15 17 15 12 10 7 4 7 10 13 18 17 21 24 24 24 27 21 24 24 26 30 32 36
62 61 65 56 59 56 51 56 54 50 50 52 48 41 37 34 32 23 31 28 26 24 20 14 9 9 10 13 18 22 20 23 26 26 20 22 22 32 24 23 27 28 31
62 60 63 60 64 60 59 52 57 56 48 56 54 51 44 39 43 39 40 40 35 34 28 22 18 16 16 18 25 28 27 26 30 31 28 27 20 23 29 22 24 25 29
60 65 63 65 65 66 68 63 59 54 53 56 57 58 53 49 45 43 44 40 38 36 33 30 25 24 22 22 28 34 35 32 34 36 35 31 28 14 15 31 25 22 26
62 64 71 71 70 68 68 69 64 61 56 57 60 61 60 57 51 52 49 46 47 43 44 39 38 36 31 31 33 34 34 35 39 41 38 35 30 20 18 20 31 33 27
57 64 70 77 73 75 71 73 69 64 61 61 63 63 59 55 56 56 55 57 51 53 50 50 49 44 39 33 36 36 36 38 40 40 38 36 33 28 24 24 28 34 36
63 67 72 78 84 84 85 81 79 76 70 68 67 62 61 61 57 52 55 59 58 66 54 60 57 52 48 44 46 39 37 38 41 42 43 40 36 30 28 29 27 26 32
65 68 76 77 83 88 90 89 86 81 71 73 70 69 65 65 62 59 61 63 56 69 57 63 64 61 57 57 52 43 30 33 42 43 42 40 37 35 35 34 34 31 30
63 74 72 77 81 85 93 95 92 83 75 72 78 75 74 71 71 63 67 65 65 70 58 66 75 71 67 69 61 40 22 26 47 48 48 43 40 42 43 42 41 38 34
56 68 75 72 77 83 86 92 93 89 85 81 82 80 79 74 80 68 64 67 69 70 71 80 73 74 75 80 75 67 48 31 31 31 53 54 52 50 47 47 46 44 40
43 61 73 65 71 77 79 84 85 84 82 73 76 80 76 78 80 76 72 72 76 74 66 76 83 84 73 85 85 70 74 55 41 32 44 63 64 57 52 49 48 48 45
41 52 63 62 64 67 73 79 79 77 73 71 74 75 75 80 83 82 83 80 77 80 75 79 77 74 84 90 93 80 83 77 71 60 42 50 63 62 58 54 55 53 48
Wind_Direction_850mb
177 183 166 161 148 131 123 107 99 97 96 97 99 98 98 92 92 81 65 68 81 86 88 93 98 99 100 98 97 100 102 98 100 100 95 89 87 87 86 85 85 84 84
163 171 169 159 146 129 118 107 103 97 93 93 96 99 105 104 88 78 67 82 87 89 93 93 95 100 94 90 92 89 95 106 112 107 101 98 94 92 92 91 90 89 87
170 166 167 162 151 135 125 111 102 98 96 94 96 99 102 103 88 83 82 87 90 93 97 98 100 97 91 85 82 75 86 94 101 108 115 98 94 99 96 97 99 98 93
172 168 167 163 152 137 130 121 112 102 98 96 97 98 107 107 105 88 89 94 95 100 103 105 105 100 94 84 74 72 79 91 98 100 99 104 95 91 92 90 90 83 84
175 171 169 164 154 143 137 130 121 111 105 99 94 98 111 113 107 91 92 96 101 106 108 108 105 101 94 85 82 90 89 90 89 89 84 80 84 81 86 85 90 89 87
177 174 172 168 161 149 144 138 130 123 118 112 105 102 105 110 99 96 98 97 102 109 114 118 117 105 98 95 96 98 95 94 92 95 94 95 90 91 91 97 96 97 100
174 177 176 173 168 159 153 146 141 134 126 120 115 111 109 110 104 105 106 108 109 113 119 126 117 117 110 98 102 102 101 104 104 101 99 98 95 93 94 99 98 95 92
177 178 181 178 176 171 163 156 150 142 135 129 123 116 111 110 110 112 113 114 115 120 129 127 125 123 118 112 110 113 110 110 102 102 102 98 101 94 93 90 96 100 102
179 180 185 185 184 181 176 171 164 155 148 143 137 128 122 119 118 117 116 116 117 124 126 127 127 122 118 113 116 124 131 128 116 103 94 92 90 94 104 109 107 109 105
185 192 201 195 192 188 185 182 177 170 163 156 147 136 131 129 127 125 124 122 121 122 121 124 125 121 114 112 118 135 155 147 120 109 103 98 105 105 97 97 96 95 94
193 199 202 208 201 196 193 188 183 179 173 163 148 132 130 135 134 132 131 127 122 119 114 113 113 114 118 127 127 124 128 137 124 112 109 113 110 97 102 97 96 96 94
195 198 203 213 210 202 199 195 190 187 180 182 167 148 139 141 140 139 141 135 130 125 112 107 109 110 115 125 141 149 151 149 132 115 115 113 105 104 99 97 95 96 90
200 201 202 207 213 215 205 200 197 195 188 189 191 193 172 156 151 153 154 153 153 136 116 98 100 106 116 135 171 173 144 149 135 124 117 114 121 105 97 94 92 91 91
205 208 211 206 211 216 218 212 208 201 196 198 195 203 207 192 191 194 183 182 177 168 162 141 129 132 113 125 157 171 161 157 159 150 145 125 109 104 99 97 95 94 88
211 214 217 211 211 216 213 216 216 216 206 204 201 205 214 203 201 204 209 232 218 203 208 212 222 191 144 150 167 180 180 166 166 180 168 147 140 110 102 98 96 96 97
218 220 219 219 215 216 217 216 216 219 216 211 211 209 212 212 206 216 208 213 223 220 221 228 219 216 196 179 188 195 203 184 179 186 196 186 176 126 115 108 107 102 100
223 222 223 223 219 219 219 224 223 226 225 218 217 216 216 218 214 218 214 213 217 217 226 221 217 218 221 199 201 201 212 203 194 202 210 222 225 154 128 125 120 114 106
229 225 223 225 223 222 223 228 229 228 228 224 222 221 220 225 226 224 225 229 230 228 222 228 219 219 217 217 207 201 207 211 201 209 216 227 219 232 217 148 129 121 110
235 230 226 226 229 225 225 227 235 234 232 231 226 223 224 223 228 229 232 235 236 237 230 225 218 214 216 215 205 202 206 214 211 214 223 223 220 220 202 193 154 138 132
239 234 230 229 230 229 231 229 229 233 235 234 232 228 228 227 228 229 234 237 237 236 239 233 219 216 217 219 204 201 207 211 213 218 221 223 227 226 213 198 178 156 139
238 234 230 229 229 227 227 227 228 228 232 231 236 235 231 230 228 231 238 238 236 245 242 234 221 218 213 216 208 199 198 210 213 215 217 220 220 218 213 200 194 188 171
238 235 230 230 231 230 231 232 232 230 232 235 234 239 229 232 231 240 237 243 240 243 240 236 234 216 221 218 213 200 194 209 212 216 219 220 218 217 216 209 206 205 198
241 233 233 231 231 232 233 231 232 232 230 236 235 233 236 235 233 237 242 241 244 244 252 240 234 239 232 226 215 210 195 212 211 217 218 221 225 221 217 215 212 209 202
241 235 233 234 233 234 236 234 235 239 238 235 239 242 239 241 240 238 244 245 241 245 251 241 243 237 252 238 216 220 225 230 195 209 217 221 224 223 220 217 213 209 206
236 233 229 232 234 236 238 240 241 242 245 244 243 246 243 247 239 244 244 245 250 238 250 245 245 242 253 237 231 230 226 231 224 219 213 218 220 219 219 218 214 210 208
231 222 222 228 233 239 241 240 238 241 243 246 250 248 246 246 244 246 244 248 240 248 254 249 244 255 240 243 235 238 235 232 232 225 220 221 224 222 216 216 215 213 211